TimePST,TemperatureF,Dew PointF,Humidity,Sea Level PressureIn,VisibilityMPH,Wind Direction,Wind SpeedMPH,Gust SpeedMPH,PrecipitationIn,Events,Conditions,WindDirDegrees,DateUTC
12:54 AM,44.1,41.0,89,30.25,9.0,Calm,Calm,-,N/A,,Clear,0,2013-02-26 08:54:00
1:54 AM,42.1,39.0,89,30.23,10.0,SSE,4.6,-,N/A,,Clear,160,2013-02-26 09:54:00
2:54 AM,39.9,36.0,86,30.21,10.0,East,6.9,-,N/A,,Clear,90,2013-02-26 10:54:00
3:54 AM,39.9,36.0,86,30.19,10.0,East,8.1,-,N/A,,Clear,80,2013-02-26 11:54:00
4:54 AM,41.0,35.1,79,30.19,10.0,Calm,Calm,-,N/A,,Clear,0,2013-02-26 12:54:00
5:54 AM,39.0,34.0,82,30.20,10.0,Calm,Calm,-,N/A,,Clear,0,2013-02-26 13:54:00
6:54 AM,37.9,34.0,86,30.22,10.0,ESE,6.9,-,N/A,,Clear,110,2013-02-26 14:54:00
7:54 AM,45.0,36.0,71,30.22,10.0,ENE,4.6,-,N/A,,Clear,60,2013-02-26 15:54:00
8:54 AM,54.0,37.9,55,30.23,10.0,ENE,10.4,-,N/A,,Clear,70,2013-02-26 16:54:00
9:54 AM,57.9,30.0,35,30.21,10.0,ENE,8.1,-,N/A,,Clear,70,2013-02-26 17:54:00
10:54 AM,62.1,27.0,26,30.22,10.0,North,5.8,-,N/A,,Clear,10,2013-02-26 18:54:00
11:54 AM,57.9,36.0,44,30.22,10.0,WNW,8.1,-,N/A,,Clear,300,2013-02-26 19:54:00
12:54 PM,59.0,35.1,41,30.20,10.0,NW,6.9,-,N/A,,Clear,310,2013-02-26 20:54:00
1:54 PM,59.0,39.9,49,30.19,10.0,NW,8.1,-,N/A,,Clear,310,2013-02-26 21:54:00
2:54 PM,59.0,42.1,53,30.19,10.0,NW,6.9,-,N/A,,Clear,310,2013-02-26 22:54:00
3:54 PM,57.0,42.1,57,30.18,10.0,NW,5.8,-,N/A,,Clear,320,2013-02-26 23:54:00
4:54 PM,55.0,41.0,59,30.19,10.0,WSW,10.4,20.7,N/A,,Clear,240,2013-02-27 00:54:00
5:54 PM,52.0,42.1,69,30.20,10.0,Calm,Calm,-,N/A,,Clear,0,2013-02-27 01:54:00
6:54 PM,50.0,39.0,66,30.21,10.0,South,3.5,-,N/A,,Clear,170,2013-02-27 02:54:00
7:54 PM,51.1,37.9,61,30.23,10.0,SSW,4.6,-,N/A,,Clear,200,2013-02-27 03:54:00
8:54 PM,48.0,37.0,66,30.24,10.0,Calm,Calm,-,N/A,,Clear,0,2013-02-27 04:54:00
9:54 PM,45.0,37.0,74,30.25,10.0,ESE,3.5,-,N/A,,Clear,110,2013-02-27 05:54:00
10:54 PM,43.0,35.1,74,30.25,10.0,Calm,Calm,-,N/A,,Clear,0,2013-02-27 06:54:00
11:54 PM,42.1,34.0,73,30.25,10.0,East,3.5,-,N/A,,Clear,90,2013-02-27 07:54:00